Winnerscup USA - resume training

Station: Trainer 25 Miles - T Race

Distance: 25 Miles

Release: 13-Mar-2018 08:35

Weather Release:    Arrival:

Wind at Release:     Wind at Arrival:

Temp at Release: °    Temp at Arrival: °

Lofts: 53

Birds: 180

Clocked: 172

Good Luck to Everyone!
Drops Pos Breeder Pigeon Name Color Sex Ent Arrival Speed To Win Eligible AB
1 Larry Lewis - OK 8152-AU17-TRPC Destined Class BB C 1 09:10:12.00 1250.000 00:00:00 Lost
2 John Partridge - CA 0619-AU17-PASO Moon Twister BC H 1 09:10:13.00 1249.408 00:00:01 Yes
3 Bieche-Stevenson - CA 7444-AU17-BIEC Blue Million BBWF C 1 09:10:15.00 1248.227 00:00:03 Yes
4 John Partridge - CA 0623-AU17-PASO Monet BBWF C 2 09:10:17.00 1247.048 00:00:05 Yes
5 Jack's Loft - CA 4393-AU17-FOYS Today's Hero SIL C 1 09:10:18.00 1246.459 00:00:06 Yes
6 Dal-Tex R P C - TX 0448-AU17-DLLS Esmeralda BC H 1 09:10:19.00 1245.871 00:00:07 Yes
6 Champ Camp - IN 0231-AU17-CHMP NEVER BEFORE BB C 1 09:10:19.00 1245.871 00:00:07 Yes
8 Nesler Boyz - CA 1796-AU17-TCH Front Runner BWFP C 1 09:10:21.00 1244.696 00:00:09 Yes
9 A P C Loft - TX 17369-AU17-APC Let It Be Known BC C 1 09:10:22.00 1244.109 00:00:10 Yes
9 A B C Loft2 - NY 59759-AU17-ARPU Cleopatra BC H 1 09:10:22.00 1244.109 00:00:10 Yes
11 Sextons Loft - IA 31777-AU17-AA Possible Witness BC C 1 09:10:24.00 1242.938 00:00:12 Yes
12 Sextons Loft - IA 31781-AU17-AA Mitigator BB C 2 09:10:25.00 1242.353 00:00:13 Yes
13 Sofija Loft - IL 0011-AU17-BEKO Ludacris BBPD C 1 09:10:26.00 1241.769 00:00:14 Yes
14 Bolgar Loft - CA 15841-AU17-FOYS Darejani SLAT H 1 09:10:27.00 1241.185 00:00:15 Yes
15 Jimmy Zheng Loft - MS 0628-AU17-ZHNG Born Again BC C 1 09:10:30.00 1239.437 00:00:18 Yes
16 Acre Farms - CA 0342-AU17-GENE Grouponner BC H 1 09:10:31.00 1238.855 00:00:19 Yes
17 A D L Sheila - IL 0220-AU17-ADL Silhouette BB H 1 09:10:32.00 1238.274 00:00:20 Yes
18 - 7650-IF17-FTST 2 09:10:37.00 1235.377 00:00:25
19 P/R Loft - CA 0279-AU17-GSF Desciple BCW C 1 09:10:39.00 1234.222 00:00:27 Yes
20 Hollywood Lou Loft - FL 0062-AU17-LOU Midnite Lace BB H 1 09:10:43.00 1231.918 00:00:31 Yes
21 Sienna Loft - NC 36773-AU17-AA American Pied BCP C 1 09:10:46.00 1230.196 00:00:34 Yes
22 Hollywood Lou Loft - FL 0067-AU17-LOU Key Witness SMBB C 2 09:10:47.00 1229.623 00:00:35 Yes
23 Hollywood Lou Loft - FL 0064-AU17-LOU American South BB C 3 09:10:50.00 1227.907 00:00:38 Yes
23 Racing Pigeon Mall - WA 0730-AU17-RPM Opium BB C 1 09:10:50.00 1227.907 00:00:38 Yes
25 Racing Pigeon Mall - WA 0717-AU17-RPM Rachel Evans BROZ H 2 09:10:54.00 1225.627 00:00:42 Yes
26 Jack's Loft - CA 4395-AU17-FOYS Chosen Pleasure BBPD H 2 09:10:55.00 1225.058 00:00:43 Yes
27 A B C Loft2 - NY 59750-AU17-ARPU BamBoo BB C 2 09:10:56.00 1224.490 00:00:44 Yes
28 G & L Loft - OR 2395-AU17-WPC Brick House RC H 1 09:10:59.00 1222.788 00:00:47 Yes
29 Sienna Loft - NC 36820-AU17-AA Baby Doll BC H 2 09:11:01.00 1221.657 00:00:49 Yes
30 Acre Farms - CA 0346-AU17-GENE Take 5 BC C 2 09:11:02.00 1221.092 00:00:50 Yes
31 Champ Camp - IN 0237-AU17-CHMP Dark Runner SMOK C 2 09:11:04.00 1219.963 00:00:52 Yes
32 Champ Camp - IN 0240-AU17-CHMP Iron Mike BB C 3 09:11:11.00 1216.029 00:00:59 Yes
33 Dream Team - VT 0610-AU17-JCZL Great Rendition BB C 1 09:11:12.00 1215.470 00:01:00 Yes
34 Tanai Kantisiri - CA 2928-AU17-COM Platinum BB C 1 09:11:14.00 1214.351 00:01:02 Yes
35 Champ Camp - IN 0224-AU17-CHMP Turning Point BB C 4 09:11:16.00 1213.235 00:01:04 Yes
36 Larry Lewis - OK 8151-AU17-TRPC Only Hope BC H 2 09:11:17.00 1212.678 00:01:05 Yes
36 El Dorado Loft - TX 0184-AU17-TXAS Manfreddy BKCW C 1 09:11:17.00 1212.678 00:01:05 Yes
38 Racing Pigeon Mall - WA 0716-AU17-RPM Phantom Starlight BROZ C 3 09:11:19.00 1211.565 00:01:07 Yes
39 Larry Lewis - OK 8156-AU17-TRPC Clippers Hero BC C 3 09:11:20.00 1211.009 00:01:08 Yes
40 Sextons Loft - IA 31786-AU17-AA Dialed 4 Dollars WHGZ C 3 09:11:21.00 1210.454 00:01:09 Yes
41 John Partridge - CA 0618-AU17-PASO The Aristocrat BC C 3 09:11:25.00 1208.238 00:01:13 Yes
42 Daehn/Miele - FL 3839-AU17-FOYS Melany BB H 1 09:11:27.00 1207.133 00:01:15 Yes
43 Joe Zarachowicz - MD 2270-AU17-CCC Shooter BB C 1 09:11:28.00 1206.581 00:01:16 Yes
44 Champ Camp - IN 0236-AU17-CHMP Classic Tipp BBWF C 5 09:11:29.00 1206.030 00:01:17 Yes
45 Walstons Warriors - NC 7410-AU17-GL Dullah Bhati BB C 1 09:11:31.00 1204.929 00:01:19 Yes
46 Ganus Family Loft - IN 0292-AU17-GFL Planet Icon BC H 1 09:11:32.00 1204.380 00:01:20 Yes
47 Ganus Family Loft - IN 0223-AU17-GFL Meteor Man DCWP C 2 09:11:34.00 1203.282 00:01:22 Yes
48 Longjohn Loft - OK 1183-AU17-FOYS ACHILLES SIL C 1 09:11:35.00 1202.733 00:01:23 Yes
49 A B C Loft2 - NY 1441-AU17-BORO Manhattan BC C 3 09:11:36.00 1202.186 00:01:24 Yes
50 Spirit In The Sky - IL 0371-AU17-LCC John Paul BB C 1 09:11:38.00 1201.092 00:01:26 Yes
51 Jack's Loft - CA 36711-AU17-ARPU Alamaar RGRZ H 3 09:11:41.00 1199.455 00:01:29 Yes
52 Daehn/Miele - FL 3837-AU17-FOYS French Braid BB H 2 09:11:42.00 1198.910 00:01:30 Yes
53 John Partridge - CA 0629-AU17-PASO Americana RC C 4 09:11:48.00 1195.652 00:01:36 Yes
54 P/R Loft - CA 0282-AU17-GSF Mezmerise BB H 2 09:11:50.00 1194.570 00:01:38 Yes
55 A P C Loft - TX 17323-AU17-APC Clever Endeavor BCW C 2 09:11:51.00 1194.030 00:01:39 Yes
56 A D L Sheila - IL 0202-AU17-ADL National Two BB C 2 09:11:53.00 1192.951 00:01:41 Yes
57 B E T Loft - LA 22500-AU17-AA Hollywood's Top Star BB C 1 09:11:54.00 1192.412 00:01:42 Yes
58 G & L Loft - OR 2392-AU17-WPC American Standard BWFP C 2 09:11:55.00 1191.874 00:01:43 Yes
58 Nesler Boyz - CA 1764-AU17-TCH Tag Me Sold BB H 2 09:11:55.00 1191.874 00:01:43 Yes
60 1-Tonyloft - VA 0639-AU17-ZHNG Check me Twice BC C 1 09:11:56.00 1191.336 00:01:44 Yes
61 Sofija Loft - IL 0023-AU17-BEKO Muves BB H 2 09:11:59.00 1189.725 00:01:47 Yes
62 Larry Lewis - OK 8146-AU17-TRPC No Exemption BC C 4 09:12:00.00 1189.189 00:01:48 Yes
63 Valhalla Loft - CA 0482-AU17-WSJ COBALT BB C 1 09:12:02.00 1188.119 00:01:50 Yes
64 Racing Pigeon Mall - WA 0712-AU17-RPM Boxer Rebellion BC C 4 09:12:04.00 1187.050 00:01:52 Yes
65 Daehn/Miele - FL 3841-AU17-FOYS Sweet Million BC C 3 09:12:05.00 1186.517 00:01:53 Yes
65 Tar Syndicate - PA 7976-AU17-TAR Game to Win DC C 1 09:12:05.00 1186.517 00:01:53 Yes
67 A D L Loft - IL 0192-AU17-ADL Over Achiever BBWF C 1 09:12:09.00 1184.388 00:01:57 Yes
67 Jack's Loft - CA 36716-AU17-ARPU The Magician GR C 4 09:12:09.00 1184.388 00:01:57 Yes
69 Sienna Loft - NC 36771-AU17-AA Good Night BB C 3 09:12:10.00 1183.857 00:01:58 Yes
70 Tar Syndicate - PA 7974-AU17-TAR Cloud 74 VELV C 2 09:12:11.00 1183.326 00:01:59 Yes
71 A D L Loft - IL 0168-AU17-ADL Maverick BB H 2 09:12:13.00 1182.266 00:02:01 Yes
71 Sextons Loft - IA 31763-AU17-AA New Apollo BC C 4 09:12:13.00 1182.266 00:02:01 Yes
73 Ken Easley-Silvercreek - NM 5151-AU17-ESLY Urban Kone BB C 1 09:12:15.00 1181.208 00:02:03 Yes
73 Red Ass Ranch - TX 0149-AU17-RAR Blue Diva BB H 1 09:12:15.00 1181.208 00:02:03 Yes
75 Sarrett Racing Pigeons - TX 7026-AU17-PPH Amarillo Queen BC H 1 09:12:16.00 1180.680 00:02:04 Yes
76 Daehn/Miele - FL 3838-AU17-FOYS Bamboozled BB H 4 09:12:17.00 1180.152 00:02:05 Yes
77 Larry Lewis - OK 8161-AU17-TRPC Vixen GP H 5 09:12:18.00 1179.625 00:02:06 Yes
78 Larry Lewis - OK 8163-AU17-TRPC Follow The Money BC C 6 09:12:19.00 1179.098 00:02:07 Yes
78 Racing Pigeon Mall - WA 0713-AU17-RPM Gotta Take Notice BB C 5 09:12:19.00 1179.098 00:02:07 Yes
80 Hollywood Lou Loft - FL 0061-AU17-LOU Brilliance BB C 4 09:12:21.00 1178.046 00:02:09 Yes
81 A B C Loft2 - NY 59780-AU17-ARPU National Asset BB C 4 09:12:23.00 1176.995 00:02:11 Yes
82 Ken Easley-Silvercreek - NM 5162-AU17-ESLY Ria BB C 2 09:12:26.00 1175.423 00:02:14 Yes
83 Larry Lewis - OK 8155-AU17-TRPC Mind Raker RCPD C 7 09:12:30.00 1173.333 00:02:18 Yes
84 Nesneb Racing Loft - AL 17141-AU17-MOB In The Money BB H 1 09:12:32.00 1172.291 00:02:20 Yes
85 - 7624-IF17-FTST 3 09:12:33.00 1171.771 00:02:21
86 Jack's Loft - CA 36718-AU17-ARPU Britanny GR H 5 09:12:35.00 1170.732 00:02:23 Yes
87 Hi-Cal Connection - CA 0785-AU17-HCAL Under Seige PEN C 1 09:12:37.00 1169.694 00:02:25 Yes
88 Champ Camp - IN 0275-AU17-CHMP Scirrocco BB H 6 09:12:39.00 1168.659 00:02:27 Yes
89 Racing Pigeon Mall - WA 0724-AU17-RPM First Edition BB C 6 09:12:40.00 1168.142 00:02:28 Yes
90 Aurelio Aranda - AZ 42211-AU17-AA Mind Game BB C 1 09:12:44.00 1166.078 00:02:32 Yes
91 Walstons Warriors - NC 7404-AU17-GL NAPOLEON BB C 2 09:12:45.00 1165.563 00:02:33 Yes
92 Crescendo Loft - NM 18439-AU17-AA Dhronex BB C 1 09:12:46.00 1165.049 00:02:34 Yes
93 Hollywood Lou Loft - FL 0074-AU17-LOU Imposter BWFP C 5 09:12:49.00 1163.508 00:02:37 Yes
94 Dream Team - VT 0358-AU17-JCZL Game On BC C 2 09:12:51.00 1162.483 00:02:39 Yes
95 Team Fujitake - HI 13911-AU17-FOYS Blue Hilo BBWF H 1 09:12:52.00 1161.972 00:02:40 Yes
96 Sienna Loft - NC 37802-AU17-AA Admiral Halsey BB C 4 09:12:54.00 1160.950 00:02:42 Yes
97 Daehn/Miele - FL 3840-AU17-FOYS Steady Freddie BB C 5 09:12:55.00 1160.440 00:02:43 Yes
98 Ojibwe Loft - OK 0040-AU17-OJIB TICKELO BB H 1 09:12:56.00 1159.930 00:02:44 Yes
99 Huan Qiu Zhang - NC 1711-AU17-JNC Bit Chain BCW C 1 09:12:59.00 1158.403 00:02:47 Yes
100 Goshentown Lofts - TN 1796-AU17-NPA Dossier 96 BB H 1 09:13:03.00 1156.373 00:02:51 Yes

There are 262 bird records

Note: These Race Results are unofficial and subject to change until verified by the Race Committee and declared final.